Temp
9 9 9 9 9 9 9 9 9 8 8 8 8 8 8 7 7 7 7 7 6 7 6 6 7 7 8 8 8 8 7 7 6 6 5 5 5 5 6 6 6 6 6
9 9 9 9 9 9 9 9 8 8 8 8 8 8 8 7 7 7 7 7 6 6 6 6 7 7 8 8 8 8 7 7 7 6 5 5 4 6 6 6 5 6 6
8 8 9 9 9 8 8 8 8 8 8 8 7 7 7 7 7 7 7 7 6 7 6 6 7 7 7 8 8 8 7 7 7 7 6 6 6 6 5 6 5 5 5
8 8 8 8 8 8 8 8 8 8 8 7 7 7 7 7 7 7 7 7 7 7 7 6 6 7 7 7 7 7 7 7 7 7 7 7 7 6 5 5 5 5 5
7 7 8 8 8 8 8 8 8 8 8 8 7 7 7 7 7 7 7 7 7 7 7 6 7 7 7 7 7 7 7 7 7 7 7 7 7 7 6 5 5 5 5
7 7 7 7 7 7 7 7 7 7 7 7 7 7 7 7 7 7 7 7 7 6 6 6 6 7 7 7 7 7 7 7 7 7 7 7 7 7 7 7 6 6 6
8 7 8 7 7 7 7 7 7 7 7 7 7 7 7 7 7 6 6 7 7 6 6 6 6 7 7 7 7 7 7 7 7 7 7 7 7 7 7 7 7 6 6
7 7 7 7 7 7 7 7 7 7 7 7 7 7 7 7 7 6 6 6 6 7 7 7 7 7 7 7 7 7 7 7 7 7 7 7 7 7 7 7 7 7 7
7 7 7 7 7 7 7 6 6 6 7 7 7 7 7 6 6 6 6 6 6 6 6 7 7 7 7 7 7 7 7 7 7 7 6 7 7 7 8 7 7 7 7
7 7 7 7 7 7 7 6 6 6 6 6 6 6 6 6 6 6 6 6 5 6 6 7 7 7 7 7 7 7 6 7 6 6 6 6 5 4 6 7 6 6 7
7 7 6 6 6 7 6 6 6 6 6 6 6 6 6 6 6 6 6 6 5 5 6 6 7 7 7 7 6 7 7 6 6 6 6 5 4 3 4 5 5 6 6
7 7 6 6 6 6 6 6 6 6 6 6 5 5 6 6 5 6 6 6 5 5 6 6 6 6 7 6 6 6 6 6 6 6 6 5 4 3 4 5 5 6 6
6 6 6 6 6 6 6 6 6 6 6 6 5 5 5 5 5 5 5 5 5 6 5 5 6 6 6 6 6 6 6 6 6 6 5 4 4 3 4 5 5 6 6
6 6 6 6 6 6 5 5 5 5 5 5 5 5 5 5 5 5 5 5 5 5 5 5 5 6 6 6 6 6 6 6 6 6 5 4 4 4 4 5 5 5 5
6 6 5 5 5 5 5 5 5 5 5 5 5 5 5 5 5 5 5 5 4 4 4 4 5 5 5 6 6 6 5 5 5 6 5 3 2 3 4 3 4 5 5
5 5 5 5 5 5 5 5 4 4 4 4 4 5 5 5 4 4 4 5 4 4 4 4 4 4 4 5 5 5 5 5 5 5 4 2 2 3 3 3 4 4 5
5 5 5 5 4 4 4 4 4 3 3 4 4 4 4 4 4 4 4 3 3 3 4 4 4 4 4 5 5 5 5 5 5 4 4 3 3 2 2 3 4 4 4
3 3 3 4 4 3 3 3 3 3 3 3 3 3 3 3 4 4 4 4 3 4 4 2 3 3 2 4 4 5 4 5 4 3 3 2 3 2 2 2 3 4 4
3 2 2 2 2 2 2 2 2 2 2 2 2 2 2 2 3 3 3 3 3 3 3 2 2 2 2 2 4 4 4 4 3 3 3 2 1 3 3 2 3 3 4
2 2 2 2 2 2 1 1 1 2 1 1 1 2 2 2 2 2 3 3 3 3 3 3 3 2 2 2 2 3 4 3 2 2 2 2 2 2 1 2 2 4 3
1 1 1 1 1 1 1 1 1 1 1 1 1 0 1 2 1 2 2 2 2 3 2 2 3 2 2 2 2 2 2 2 2 -1 -0 2 1 2 2 1 2 3 3
1 2 1 1 1 1 1 1 1 1 1 0 1 1 -0 0 1 1 1 1 1 1 2 2 3 2 3 2 1 1 1 1 1 1 1 1 1 2 2 2 3 3 2
1 1 1 1 1 1 1 1 1 1 1 1 0 0 0 -1 -0 -0 0 0 1 1 1 2 2 2 1 2 2 2 2 1 1 0 1 0 1 1 2 2 2 3 2
1 1 1 1 1 1 0 0 0 0 0 1 1 -0 0 -1 -1 -1 -1 -0 0 0 0 1 1 -1 1 2 2 2 1 1 0 0 -2 -0 0 1 1 1 1 2 2
1 1 1 1 0 -1 -1 -0 -0 -0 0 1 1 -1 -1 -0 -1 -1 -1 -1 -0 0 0 0 0 0 -0 1 1 1 1 0 -0 -0 -1 -1 -2 -0 1 1 1 1 2
1 1 1 1 1 -0 -2 -1 -1 -0 1 1 0 -1 -2 -2 -1 -2 -2 -1 -0 -0 0 0 0 -1 -0 -1 -1 -1 -0 -1 -1 -1 -1 -0 -0 0 1 1 1 1 1
Height
3132 3133 3135 3136 3137 3138 3138 3139 3140 3141 3142 3142 3142 3142 3143 3144 3145 3145 3146 3146 3147 3147 3148 3148 3148 3148 3148 3148 3148 3147 3147 3147 3147 3148 3149 3149 3150 3150 3151 3152 3153 3154 3155
3131 3133 3135 3136 3136 3138 3138 3139 3140 3141 3142 3142 3143 3144 3144 3144 3145 3145 3146 3146 3147 3147 3148 3148 3148 3148 3148 3148 3148 3148 3147 3147 3148 3148 3149 3149 3151 3151 3153 3153 3154 3154 3156
3131 3132 3133 3135 3136 3137 3138 3139 3140 3140 3142 3142 3142 3143 3144 3144 3145 3145 3146 3146 3147 3147 3147 3148 3148 3149 3149 3149 3149 3148 3148 3148 3148 3148 3149 3150 3151 3152 3153 3155 3156 3156 3156
3130 3131 3133 3134 3135 3136 3137 3138 3139 3139 3141 3142 3142 3142 3143 3144 3144 3145 3146 3147 3147 3147 3147 3148 3148 3149 3149 3149 3149 3149 3149 3149 3149 3149 3148 3149 3151 3152 3154 3155 3155 3156 3156
3129 3130 3132 3132 3134 3134 3135 3136 3137 3138 3139 3140 3141 3142 3143 3143 3144 3144 3145 3146 3147 3147 3148 3149 3149 3149 3149 3149 3149 3150 3149 3149 3149 3149 3149 3150 3150 3152 3153 3154 3155 3156 3157
3128 3129 3130 3131 3132 3133 3133 3135 3136 3136 3137 3138 3140 3141 3142 3143 3143 3144 3145 3145 3146 3147 3147 3148 3148 3148 3148 3149 3149 3149 3149 3149 3149 3149 3149 3149 3151 3151 3152 3153 3154 3155 3156
3127 3128 3128 3129 3130 3131 3131 3132 3133 3135 3136 3137 3138 3139 3141 3141 3142 3142 3143 3144 3145 3146 3147 3147 3147 3147 3148 3148 3148 3148 3149 3149 3148 3148 3148 3148 3150 3151 3151 3152 3153 3154 3155
3123 3125 3126 3126 3128 3129 3129 3129 3131 3132 3133 3135 3136 3137 3138 3139 3140 3141 3141 3142 3143 3144 3145 3145 3145 3145 3146 3147 3147 3148 3148 3148 3148 3148 3148 3149 3149 3150 3151 3152 3152 3153 3154
3120 3121 3122 3123 3124 3125 3125 3126 3128 3128 3130 3132 3133 3135 3136 3137 3138 3139 3140 3140 3141 3142 3142 3143 3143 3143 3143 3145 3146 3146 3147 3147 3147 3147 3148 3148 3148 3149 3150 3150 3151 3152 3154
3117 3117 3117 3118 3119 3121 3122 3123 3124 3125 3126 3128 3130 3131 3132 3134 3135 3136 3137 3138 3138 3139 3139 3140 3141 3141 3141 3142 3143 3145 3145 3146 3146 3147 3147 3148 3148 3149 3149 3149 3150 3151 3153
3113 3114 3114 3114 3115 3116 3117 3118 3120 3122 3123 3124 3125 3127 3128 3130 3131 3133 3134 3135 3136 3137 3137 3138 3139 3139 3139 3140 3141 3142 3143 3145 3144 3146 3147 3147 3149 3149 3149 3149 3150 3151 3152
3109 3109 3109 3110 3111 3112 3113 3113 3115 3117 3119 3120 3121 3123 3124 3126 3127 3129 3130 3131 3132 3133 3134 3135 3136 3137 3137 3138 3139 3140 3141 3142 3143 3144 3146 3147 3149 3149 3148 3149 3149 3150 3151
3104 3104 3104 3104 3106 3107 3108 3109 3110 3111 3112 3115 3117 3118 3120 3121 3122 3124 3125 3127 3128 3129 3130 3131 3133 3133 3134 3135 3137 3138 3138 3139 3140 3142 3144 3147 3147 3146 3148 3148 3149 3150 3150
3100 3100 3100 3099 3100 3101 3102 3104 3105 3106 3107 3108 3110 3112 3114 3115 3117 3118 3120 3122 3124 3125 3126 3128 3129 3129 3131 3131 3132 3134 3136 3136 3137 3139 3142 3143 3145 3145 3147 3148 3147 3148 3149
3097 3096 3095 3095 3095 3095 3096 3097 3099 3100 3101 3102 3103 3105 3107 3109 3111 3113 3114 3114 3116 3119 3122 3123 3124 3124 3126 3127 3128 3129 3131 3134 3136 3135 3139 3140 3141 3143 3144 3145 3146 3146 3147
3095 3094 3093 3092 3092 3091 3091 3091 3092 3093 3094 3095 3096 3097 3098 3101 3104 3107 3108 3105 3106 3115 3116 3118 3117 3119 3120 3122 3124 3125 3127 3129 3130 3134 3135 3138 3138 3139 3139 3141 3143 3144 3145
3093 3092 3090 3089 3088 3088 3087 3086 3086 3086 3087 3088 3088 3089 3090 3091 3096 3098 3099 3101 3105 3100 3108 3106 3111 3114 3115 3119 3119 3119 3121 3121 3126 3130 3131 3133 3135 3136 3137 3138 3140 3141 3142
3089 3089 3088 3086 3085 3084 3083 3082 3082 3082 3082 3082 3081 3081 3083 3083 3087 3089 3089 3092 3097 3100 3102 3096 3101 3100 3104 3113 3114 3113 3116 3119 3124 3126 3128 3128 3129 3133 3134 3135 3136 3137 3138
3086 3085 3083 3082 3081 3080 3079 3078 3078 3077 3076 3076 3076 3076 3076 3075 3077 3079 3082 3082 3085 3092 3095 3095 3094 3098 3099 3104 3107 3112 3113 3115 3119 3122 3124 3124 3126 3128 3129 3131 3132 3133 3135
3083 3081 3080 3078 3076 3075 3074 3073 3072 3071 3070 3070 3070 3069 3069 3069 3069 3071 3072 3075 3077 3081 3086 3087 3091 3095 3097 3097 3103 3106 3109 3112 3113 3117 3119 3120 3123 3124 3125 3126 3127 3129 3130
3079 3078 3075 3073 3071 3068 3066 3065 3064 3062 3061 3060 3062 3062 3062 3062 3062 3063 3064 3067 3067 3071 3076 3079 3084 3088 3088 3087 3094 3099 3101 3106 3110 3114 3114 3114 3118 3119 3119 3120 3122 3124 3126
3074 3071 3070 3067 3063 3061 3058 3055 3054 3054 3052 3050 3047 3051 3053 3054 3055 3055 3056 3058 3060 3062 3065 3069 3074 3079 3081 3085 3088 3092 3094 3099 3102 3105 3108 3110 3112 3113 3114 3115 3116 3119 3119
3067 3064 3061 3058 3054 3051 3048 3045 3044 3042 3039 3038 3038 3036 3041 3045 3046 3047 3049 3050 3053 3054 3059 3060 3065 3068 3074 3081 3082 3086 3086 3090 3095 3097 3101 3105 3107 3108 3109 3110 3111 3114 3115
3060 3056 3052 3049 3045 3042 3038 3035 3032 3030 3027 3027 3027 3026 3026 3031 3034 3039 3040 3043 3045 3047 3049 3052 3057 3061 3066 3071 3075 3079 3081 3086 3089 3090 3093 3096 3100 3102 3103 3105 3106 3108 3110
3052 3047 3042 3036 3031 3028 3026 3024 3022 3020 3018 3016 3015 3015 3016 3018 3021 3028 3032 3034 3039 3040 3042 3045 3050 3052 3060 3065 3069 3071 3074 3079 3083 3085 3087 3089 3093 3097 3097 3099 3101 3102 3104
3045 3039 3032 3026 3021 3017 3015 3013 3011 3010 3009 3007 3005 3004 3006 3009 3011 3017 3023 3027 3031 3034 3035 3038 3043 3047 3052 3058 3063 3067 3069 3072 3077 3079 3081 3086 3089 3091 3093 3094 3095 3096 3097
Wind_Speed
10 9 9 8 7 6 6 5 5 5 5 3 2 1 1 2 2 2 3 2 1 2 3 4 5 4 3 2 3 3 2 1 3 4 7 7 3 5 8 8 9 10 9
10 10 10 8 8 8 7 6 6 6 5 4 3 2 2 2 1 0 2 2 2 2 4 4 4 3 1 1 3 2 1 1 3 5 6 11 8 7 10 9 6 7 10
9 10 11 9 8 8 8 7 7 7 6 5 4 3 3 2 3 2 2 3 4 5 5 5 3 2 1 1 2 3 1 1 3 5 6 7 8 10 14 10 7 6 6
10 8 9 10 10 10 10 9 9 8 8 8 6 5 4 4 3 3 4 5 5 3 4 4 2 3 2 3 3 2 1 1 2 4 7 7 8 10 14 14 11 9 8
7 7 9 10 11 11 11 12 12 12 11 10 9 7 5 5 5 5 6 6 6 5 7 9 6 4 5 4 4 4 2 2 2 3 5 7 8 9 11 14 13 11 11
6 8 10 9 10 12 12 13 15 15 14 12 11 9 8 8 7 6 7 8 9 9 10 11 13 10 8 6 5 4 4 3 3 4 4 5 5 7 9 10 11 11 10
12 12 13 13 12 13 14 15 16 17 16 15 13 12 11 11 9 8 9 8 10 13 13 14 16 13 10 8 7 6 5 5 5 6 4 6 5 7 8 8 9 10 10
17 17 17 18 17 16 17 16 16 18 19 18 17 15 14 12 12 11 11 12 11 12 14 15 14 12 11 10 8 8 7 6 7 6 5 6 7 8 9 8 10 11 11
20 21 22 23 23 23 23 21 20 19 21 21 20 19 18 16 16 15 14 16 15 14 14 13 13 12 11 10 11 9 8 9 9 8 7 6 6 6 9 9 10 10 10
16 17 18 20 24 27 27 26 24 23 21 23 24 23 22 21 20 17 17 18 19 17 16 14 13 14 13 12 11 12 10 11 11 9 8 6 4 10 6 8 9 10 10
17 18 18 19 21 23 25 29 28 28 26 24 24 27 26 25 24 23 22 20 22 21 18 16 15 15 15 14 13 13 13 12 13 10 8 6 10 12 8 8 7 8 9
17 18 20 21 22 22 23 25 30 31 32 29 28 26 29 29 28 27 26 25 24 24 21 18 16 16 17 16 15 14 14 14 17 12 8 8 14 15 11 7 8 9 9
18 20 22 23 23 24 25 26 26 29 33 34 33 31 27 30 31 31 30 29 27 27 26 21 18 18 17 17 16 16 16 17 17 15 12 13 21 16 14 9 9 9 10
14 15 18 22 24 26 27 27 28 30 30 32 35 37 35 31 32 32 34 34 32 32 29 26 24 21 19 19 18 18 19 19 18 17 16 21 26 22 18 13 9 10 10
14 15 16 16 17 20 23 28 30 31 33 33 34 36 40 40 39 34 33 37 37 36 34 32 30 27 23 21 21 20 19 20 20 21 17 21 20 18 24 19 14 12 11
14 15 16 18 18 18 18 19 23 29 33 35 36 37 39 41 43 43 40 41 34 38 37 37 36 32 29 24 23 22 22 22 25 19 19 20 26 22 30 22 15 14 12
11 13 15 16 17 17 18 18 17 19 24 31 36 38 40 42 39 45 46 45 43 25 43 51 42 40 31 28 26 26 26 27 23 23 26 26 28 22 25 26 20 17 15
12 13 15 17 17 17 17 17 18 20 21 24 27 33 36 40 40 43 46 50 47 43 38 38 39 34 30 30 30 28 26 26 24 26 27 25 26 30 30 29 27 22 18
15 17 20 21 22 22 22 22 22 22 23 24 26 29 30 34 38 40 44 46 46 46 53 36 39 35 35 40 34 26 27 27 27 28 29 30 27 37 34 36 32 23 22
20 22 24 26 27 27 28 28 29 30 30 30 30 31 31 31 33 36 39 41 45 42 42 45 34 39 40 40 37 31 30 28 28 30 31 34 38 38 33 34 34 25 25
23 26 28 31 31 35 37 36 35 36 37 38 37 36 36 34 31 32 35 36 39 42 40 36 36 34 41 42 37 45 30 31 29 27 26 31 39 36 36 32 32 29 27
28 31 33 35 37 37 37 37 36 39 44 47 50 42 40 39 35 33 32 32 34 37 41 36 34 38 47 34 33 32 39 36 37 36 38 37 36 36 35 33 32 27 28
33 36 37 38 38 38 38 40 42 44 42 39 41 46 44 42 39 35 33 31 31 32 37 36 35 32 36 34 36 35 34 36 43 43 36 35 34 33 31 30 30 28 27
37 38 40 42 43 42 42 42 44 42 40 38 39 41 43 46 46 40 35 33 31 30 33 36 34 34 35 34 30 32 35 31 27 31 37 35 32 31 30 29 28 28 27
37 43 44 46 44 40 38 40 42 40 39 41 42 40 39 39 42 47 41 35 31 30 31 34 36 40 35 35 30 36 35 27 28 28 32 36 29 33 28 29 28 26 25
39 40 43 41 37 32 32 29 29 30 31 35 36 35 36 32 35 42 42 36 30 29 32 33 36 32 32 34 37 34 30 22 22 22 20 19 23 26 29 30 28 27 26
Wind_Direction
204 209 207 200 205 205 198 193 192 185 182 191 198 195 234 245 240 243 251 238 181 199 240 248 242 231 288 307 329 339 346 110 126 142 128 132 121 134 129 123 133 141 129
219 218 215 217 212 210 209 207 200 205 199 192 206 255 258 244 208 267 278 238 207 230 303 289 262 249 239 289 329 331 326 110 140 147 145 161 144 136 105 103 110 141 161
211 227 218 225 227 224 222 215 216 214 216 217 212 245 268 237 237 259 257 243 256 282 304 274 211 260 291 302 330 329 329 156 160 163 169 164 172 144 125 131 135 137 155
202 217 226 237 234 230 229 229 226 222 223 225 225 239 253 245 237 262 256 241 248 242 270 264 239 286 292 307 316 315 273 189 173 180 182 179 175 171 162 148 159 167 144
189 216 235 237 237 239 236 232 229 227 227 228 225 235 244 235 242 259 263 250 214 225 218 258 261 285 293 287 296 298 248 208 181 172 162 183 183 184 186 182 174 170 167
212 216 235 243 246 249 253 249 241 233 228 230 230 229 236 238 246 251 241 224 211 208 234 258 276 292 287 279 282 282 265 228 199 195 178 213 189 194 194 197 199 205 207
243 244 248 250 248 250 258 258 249 243 239 236 234 231 229 238 253 258 229 218 220 225 233 254 272 282 275 268 273 270 261 242 229 199 209 239 227 219 218 209 206 211 212
252 250 250 251 246 243 251 255 254 245 243 243 240 237 234 236 245 251 245 243 243 247 250 257 264 267 268 267 260 265 258 245 242 232 229 235 237 226 226 214 207 209 209
261 257 253 251 250 248 247 248 251 251 245 242 243 241 241 234 238 245 248 245 248 260 260 261 263 260 259 261 263 254 253 238 241 234 238 234 232 236 225 210 207 207 207
272 269 266 260 257 254 251 248 245 245 247 243 240 240 241 242 242 242 244 246 248 261 264 262 261 261 255 251 252 258 247 241 238 237 235 235 193 177 173 179 194 198 201
275 273 271 269 264 260 256 252 248 243 244 247 246 242 241 242 244 246 246 246 247 258 260 259 258 258 257 251 246 247 249 242 239 236 235 200 161 192 186 173 183 193 197
278 275 270 266 264 263 261 257 253 250 245 247 248 248 245 243 245 246 247 247 245 249 255 257 256 256 257 254 248 246 246 238 239 228 220 185 187 205 216 202 200 201 207
282 279 275 272 267 262 260 261 259 257 251 247 247 248 247 249 245 246 248 247 246 247 246 250 252 252 253 254 253 247 242 239 239 232 205 170 214 235 235 216 221 220 220
299 290 285 282 277 269 264 260 260 260 258 255 249 247 247 244 246 247 248 248 247 248 246 244 249 249 248 247 245 243 244 241 231 229 214 198 205 223 237 227 229 236 234
308 306 303 298 292 284 273 264 260 259 260 258 254 251 247 245 244 245 249 251 247 245 247 246 244 242 242 241 243 241 237 238 233 230 215 214 218 206 236 247 242 242 240
312 310 307 305 302 296 289 278 268 262 261 260 260 256 253 249 246 243 243 252 259 245 247 243 237 237 240 234 236 238 235 233 233 231 214 211 222 220 225 237 241 246 243
310 312 311 309 308 305 298 292 282 272 267 263 263 261 259 256 249 247 246 246 245 254 253 251 242 245 235 235 230 229 229 228 228 221 220 220 214 231 231 231 236 250 249
317 314 310 308 305 303 302 300 294 288 279 273 268 266 263 262 255 250 249 249 247 248 257 254 250 245 235 237 234 230 229 234 227 223 221 225 237 221 225 238 244 245 250
309 309 309 308 306 303 299 296 294 291 288 284 278 271 267 264 262 257 252 252 254 250 248 253 261 257 245 224 231 240 235 229 226 225 224 226 221 223 228 242 246 253 257
305 304 303 300 296 292 288 288 288 285 283 282 280 278 273 266 264 260 257 253 252 253 253 257 261 250 262 234 243 235 238 233 227 225 228 225 225 229 233 245 246 250 260
302 300 300 301 298 298 292 288 286 286 282 280 274 271 270 269 267 262 260 257 255 251 251 253 248 249 245 238 221 242 227 233 232 221 232 223 224 235 241 243 247 254 256
299 299 302 298 295 293 289 285 284 289 283 277 277 265 262 263 264 266 265 260 256 251 244 240 242 234 240 243 238 250 233 240 231 231 228 234 237 239 244 246 250 250 254
304 306 303 300 294 293 285 280 281 285 284 275 272 272 263 257 256 258 263 265 258 254 233 240 238 238 239 243 246 245 242 249 243 241 236 237 240 242 243 246 250 252 252
305 306 305 304 299 294 287 283 285 287 278 276 273 268 266 256 250 252 255 258 257 249 244 237 234 230 231 234 240 241 233 236 257 257 236 239 246 248 249 249 250 252 253
309 311 310 307 302 294 286 287 289 286 278 278 277 269 262 260 250 245 248 251 254 249 241 237 232 229 229 233 234 225 229 244 246 252 262 249 244 250 248 248 245 246 249
309 310 313 313 308 296 285 283 282 282 287 284 276 272 263 255 255 232 238 244 247 248 238 234 234 226 224 230 227 240 246 233 239 250 250 251 253 255 249 245 243 242 243